Time,TemperatureF,DewpointF,PressureIn,WindDirection,WindDirectionDegrees,WindSpeedMPH,WindSpeedGustMPH,Humidity,HourlyPrecipIn,Conditions,Clouds,dailyrainin,SoftwareType,DateUTC
2013-04-09 00:00:00,40.8,39.2,29.89,NNW,334,0.0,0.0,94,0.00,,---,0.00,VWS V14.01,2013-04-09 04:00:00,
2013-04-09 00:05:00,40.8,39.5,29.89,NNW,334,0.0,0.0,95,0.00,,---,0.00,VWS V14.01,2013-04-09 04:05:00,
2013-04-09 00:10:00,40.9,39.6,29.89,NNW,334,0.0,0.0,95,0.00,,---,0.00,VWS V14.01,2013-04-09 04:10:00,
2013-04-09 00:15:00,40.8,39.5,29.89,NNW,334,0.0,0.0,95,0.00,,---,0.00,VWS V14.01,2013-04-09 04:15:00,
2013-04-09 00:20:00,40.7,39.4,29.90,NNW,334,0.0,0.0,95,0.00,,---,0.00,VWS V14.01,2013-04-09 04:20:00,
2013-04-09 00:25:00,40.5,39.2,29.90,NNW,334,0.0,0.0,95,0.00,,---,0.00,VWS V14.01,2013-04-09 04:25:00,
2013-04-09 00:30:00,40.4,39.1,29.90,NNW,334,0.0,0.0,95,0.00,,---,0.00,VWS V14.01,2013-04-09 04:30:00,
2013-04-09 00:35:00,40.4,39.1,29.90,NNW,334,0.0,0.0,95,0.00,,---,0.00,VWS V14.01,2013-04-09 04:35:00,
2013-04-09 00:40:00,40.2,38.9,29.90,NNW,334,0.0,0.0,95,0.00,,---,0.00,VWS V14.01,2013-04-09 04:40:00,
2013-04-09 00:45:00,40.0,38.7,29.90,NNW,334,0.0,0.0,95,0.00,,---,0.00,VWS V14.01,2013-04-09 04:45:00,
2013-04-09 00:50:00,39.6,38.3,29.90,NNW,334,0.0,0.0,95,0.00,,---,0.00,VWS V14.01,2013-04-09 04:50:00,
2013-04-09 00:55:00,39.6,38.3,29.90,NNW,334,0.0,0.0,95,0.00,,---,0.00,VWS V14.01,2013-04-09 04:55:00,
2013-04-09 01:00:00,39.6,38.3,29.90,NNW,334,0.0,0.0,95,0.00,,---,0.00,VWS V14.01,2013-04-09 05:00:00,
2013-04-09 01:05:00,39.7,38.7,29.90,NNW,334,0.0,0.0,96,0.00,,---,0.00,VWS V14.01,2013-04-09 05:05:00,
2013-04-09 01:10:00,39.7,38.7,29.90,NNW,334,0.0,0.0,96,0.00,,---,0.00,VWS V14.01,2013-04-09 05:10:00,
2013-04-09 01:15:00,39.9,38.8,29.90,NNW,334,0.0,0.0,96,0.00,,---,0.00,VWS V14.01,2013-04-09 05:15:00,
2013-04-09 01:20:00,40.1,39.0,29.90,NNW,334,0.0,0.0,96,0.00,,---,0.00,VWS V14.01,2013-04-09 05:20:00,
2013-04-09 01:25:00,39.9,38.6,29.90,NNW,334,0.0,0.0,95,0.00,,---,0.00,VWS V14.01,2013-04-09 05:25:00,
2013-04-09 01:30:00,39.8,38.5,29.90,NNW,334,0.0,0.0,95,0.00,,---,0.00,VWS V14.01,2013-04-09 05:30:00,
2013-04-09 01:35:00,39.7,38.7,29.91,NNW,334,0.0,0.0,96,0.00,,---,0.00,VWS V14.01,2013-04-09 05:35:00,
2013-04-09 01:40:00,39.4,38.1,29.91,NNW,334,0.0,0.0,95,0.00,,---,0.00,VWS V14.01,2013-04-09 05:40:00,
2013-04-09 01:45:00,39.8,38.8,29.91,NNW,334,0.0,0.0,96,0.00,,---,0.00,VWS V14.01,2013-04-09 05:45:00,
2013-04-09 01:50:00,40.0,39.0,29.91,NNW,334,0.0,0.0,96,0.00,,---,0.00,VWS V14.01,2013-04-09 05:50:00,
2013-04-09 01:55:00,40.0,39.0,29.91,NNW,334,0.0,0.0,96,0.00,,---,0.00,VWS V14.01,2013-04-09 05:55:00,
2013-04-09 02:00:00,40.3,39.2,29.91,NNW,334,0.0,0.0,96,0.00,,---,0.00,VWS V14.01,2013-04-09 06:00:00,
2013-04-09 02:05:00,40.4,39.3,29.91,NNW,334,0.0,0.0,96,0.00,,---,0.00,VWS V14.01,2013-04-09 06:05:00,
2013-04-09 02:10:00,40.7,39.7,29.91,NNW,334,0.0,0.0,96,0.00,,---,0.00,VWS V14.01,2013-04-09 06:10:00,
2013-04-09 02:15:00,40.9,39.8,29.91,NNW,334,0.0,0.0,96,0.00,,---,0.00,VWS V14.01,2013-04-09 06:15:00,
2013-04-09 02:20:00,41.2,40.2,29.91,NNW,334,0.0,0.0,96,0.00,,---,0.00,VWS V14.01,2013-04-09 06:20:00,
2013-04-09 02:25:00,41.6,40.5,29.91,NNW,334,0.0,0.0,96,0.00,,---,0.00,VWS V14.01,2013-04-09 06:25:00,
2013-04-09 02:30:00,41.9,40.8,29.91,NNW,334,0.0,0.0,96,0.00,,---,0.00,VWS V14.01,2013-04-09 06:30:00,
2013-04-09 02:35:00,42.2,41.1,29.91,NNW,334,0.0,0.0,96,0.00,,---,0.00,VWS V14.01,2013-04-09 06:35:00,
2013-04-09 02:40:00,42.3,41.0,29.91,NNW,334,0.0,0.0,95,0.00,,---,0.00,VWS V14.01,2013-04-09 06:40:00,
2013-04-09 02:45:00,42.4,41.1,29.91,NNW,334,0.0,0.0,95,0.00,,---,0.00,VWS V14.01,2013-04-09 06:45:00,
2013-04-09 02:50:00,42.5,41.2,29.91,NNW,334,0.0,0.0,95,0.00,,---,0.00,VWS V14.01,2013-04-09 06:50:00,
2013-04-09 02:55:00,42.5,41.2,29.91,NNW,334,0.0,0.0,95,0.00,,---,0.00,VWS V14.01,2013-04-09 06:55:00,
2013-04-09 03:00:00,42.5,40.9,29.91,NNW,334,0.0,0.0,94,0.00,,---,0.00,VWS V14.01,2013-04-09 07:00:00,
2013-04-09 03:05:00,42.5,40.9,29.90,NNW,334,0.0,1.0,94,0.00,,---,0.00,VWS V14.01,2013-04-09 07:05:00,
2013-04-09 03:10:00,42.5,40.9,29.90,NNW,334,0.0,0.0,94,0.00,,---,0.00,VWS V14.01,2013-04-09 07:10:00,
2013-04-09 03:15:00,42.5,40.9,29.90,NNW,334,0.0,0.0,94,0.00,,---,0.00,VWS V14.01,2013-04-09 07:15:00,
2013-04-09 03:20:00,42.6,41.0,29.89,NNW,334,0.0,1.0,94,0.00,,---,0.00,VWS V14.01,2013-04-09 07:20:00,
2013-04-09 03:25:00,42.4,40.8,29.89,NNW,334,0.0,0.0,94,0.00,,---,0.00,VWS V14.01,2013-04-09 07:25:00,
2013-04-09 03:30:00,42.1,40.5,29.89,NNW,334,0.0,0.0,94,0.00,,---,0.00,VWS V14.01,2013-04-09 07:30:00,
2013-04-09 03:35:00,42.1,40.5,29.89,NNW,334,0.0,0.0,94,0.00,,---,0.00,VWS V14.01,2013-04-09 07:35:00,
2013-04-09 03:40:00,42.3,40.7,29.89,NNW,334,0.0,0.0,94,0.00,,---,0.00,VWS V14.01,2013-04-09 07:40:00,
2013-04-09 03:45:00,42.5,40.9,29.89,NNW,334,0.0,0.0,94,0.00,,---,0.00,VWS V14.01,2013-04-09 07:45:00,
2013-04-09 03:50:00,42.7,41.1,29.89,NNW,334,0.0,0.0,94,0.00,,---,0.00,VWS V14.01,2013-04-09 07:50:00,
2013-04-09 03:55:00,42.8,41.2,29.89,NNW,334,0.0,0.0,94,0.00,,---,0.00,VWS V14.01,2013-04-09 07:55:00,
2013-04-09 04:00:00,43.0,41.4,29.89,NNW,334,1.0,3.0,94,0.00,,---,0.00,VWS V14.01,2013-04-09 08:00:00,
2013-04-09 04:05:00,43.3,41.7,29.89,NNW,334,0.0,0.0,94,0.00,,---,0.00,VWS V14.01,2013-04-09 08:05:00,
2013-04-09 04:10:00,43.3,41.7,29.89,NNW,335,0.0,1.0,94,0.00,,---,0.00,VWS V14.01,2013-04-09 08:10:00,
2013-04-09 04:15:00,43.4,41.5,29.89,NNW,335,0.0,1.0,93,0.00,,---,0.00,VWS V14.01,2013-04-09 08:15:00,
2013-04-09 04:20:00,43.4,41.5,29.90,ESE,103,0.0,1.0,93,0.00,,---,0.00,VWS V14.01,2013-04-09 08:20:00,
2013-04-09 04:25:00,43.4,41.5,29.90,East,101,0.0,1.0,93,0.00,,---,0.00,VWS V14.01,2013-04-09 08:25:00,
2013-04-09 04:30:00,43.4,41.5,29.90,East,101,0.0,0.0,93,0.00,,---,0.00,VWS V14.01,2013-04-09 08:30:00,
2013-04-09 04:35:00,43.4,41.5,29.89,East,101,0.0,0.0,93,0.00,,---,0.00,VWS V14.01,2013-04-09 08:35:00,
2013-04-09 04:40:00,43.5,41.6,29.89,East,101,0.0,0.0,93,0.00,,---,0.00,VWS V14.01,2013-04-09 08:40:00,
2013-04-09 04:45:00,43.6,41.7,29.89,East,101,0.0,1.0,93,0.00,,---,0.00,VWS V14.01,2013-04-09 08:45:00,
2013-04-09 04:50:00,43.7,41.8,29.89,East,101,0.0,0.0,93,0.00,,---,0.00,VWS V14.01,2013-04-09 08:50:00,
2013-04-09 04:55:00,43.8,41.9,29.89,East,101,0.0,0.0,93,0.00,,---,0.00,VWS V14.01,2013-04-09 08:55:00,
2013-04-09 05:00:00,43.9,42.0,29.89,East,101,0.0,0.0,93,0.00,,---,0.00,VWS V14.01,2013-04-09 09:00:00,
2013-04-09 05:05:00,44.0,41.8,29.90,ESE,121,0.0,3.0,92,0.00,,---,0.00,VWS V14.01,2013-04-09 09:05:00,
2013-04-09 05:10:00,44.1,42.2,29.90,ESE,120,1.0,1.0,93,0.00,,---,0.00,VWS V14.01,2013-04-09 09:10:00,
2013-04-09 05:15:00,44.2,42.0,29.90,ESE,120,0.0,1.0,92,0.00,,---,0.00,VWS V14.01,2013-04-09 09:15:00,
2013-04-09 05:20:00,44.2,42.0,29.89,ESE,120,0.0,1.0,92,0.00,,---,0.00,VWS V14.01,2013-04-09 09:20:00,
2013-04-09 05:25:00,44.2,42.0,29.89,ESE,115,0.0,1.0,92,0.00,,---,0.00,VWS V14.01,2013-04-09 09:25:00,
2013-04-09 05:30:00,44.3,42.1,29.89,ESE,112,0.0,1.0,92,0.00,,---,0.00,VWS V14.01,2013-04-09 09:30:00,
2013-04-09 05:35:00,44.4,42.2,29.91,ESE,112,0.0,2.0,92,0.00,,---,0.00,VWS V14.01,2013-04-09 09:35:00,
2013-04-09 05:40:00,44.5,42.3,29.91,East,100,0.0,0.0,92,0.00,,---,0.00,VWS V14.01,2013-04-09 09:40:00,
2013-04-09 05:45:00,44.6,42.4,29.91,East,94,0.0,3.0,92,0.00,,---,0.00,VWS V14.01,2013-04-09 09:45:00,
2013-04-09 05:50:00,44.6,42.4,29.89,East,94,0.0,1.0,92,0.00,,---,0.00,VWS V14.01,2013-04-09 09:50:00,
2013-04-09 05:55:00,44.4,42.2,29.89,East,94,0.0,0.0,92,0.00,,---,0.00,VWS V14.01,2013-04-09 09:55:00,
2013-04-09 06:00:00,44.3,42.1,29.89,East,94,0.0,1.0,92,0.00,,---,0.00,VWS V14.01,2013-04-09 10:00:00,
2013-04-09 06:05:00,44.3,42.1,29.89,East,94,0.0,0.0,92,0.00,,---,0.00,VWS V14.01,2013-04-09 10:05:00,
2013-04-09 06:10:00,44.2,42.0,29.89,East,94,0.0,0.0,92,0.00,,---,0.00,VWS V14.01,2013-04-09 10:10:00,
2013-04-09 06:15:00,44.1,41.9,29.89,East,94,0.0,0.0,92,0.00,,---,0.00,VWS V14.01,2013-04-09 10:15:00,
2013-04-09 06:20:00,44.0,41.8,29.90,East,94,0.0,2.0,92,0.00,,---,0.00,VWS V14.01,2013-04-09 10:20:00,
2013-04-09 06:25:00,44.1,41.9,29.90,East,83,1.0,3.0,92,0.00,,---,0.00,VWS V14.01,2013-04-09 10:25:00,
2013-04-09 06:30:00,44.2,42.0,29.90,East,89,1.0,3.0,92,0.00,,---,0.00,VWS V14.01,2013-04-09 10:30:00,
2013-04-09 06:35:00,44.2,42.0,29.90,East,87,3.0,4.0,92,0.00,,---,0.00,VWS V14.01,2013-04-09 10:35:00,
2013-04-09 06:40:00,44.3,42.1,29.90,East,79,0.0,4.0,92,0.00,,---,0.00,VWS V14.01,2013-04-09 10:40:00,
2013-04-09 06:45:00,44.3,42.1,29.90,East,79,0.0,4.0,92,0.00,,---,0.00,VWS V14.01,2013-04-09 10:45:00,
2013-04-09 06:50:00,44.3,42.1,29.90,East,100,2.0,4.0,92,0.00,,---,0.00,VWS V14.01,2013-04-09 10:50:00,
2013-04-09 06:55:00,44.4,42.2,29.90,East,96,0.0,4.0,92,0.00,,---,0.00,VWS V14.01,2013-04-09 10:55:00,
2013-04-09 07:00:00,44.5,42.3,29.90,ENE,75,0.0,4.0,92,0.00,,---,0.00,VWS V14.01,2013-04-09 11:00:00,
2013-04-09 07:05:00,44.6,42.4,29.90,East,91,0.0,1.0,92,0.00,,---,0.00,VWS V14.01,2013-04-09 11:05:00,
2013-04-09 07:10:00,44.6,42.4,29.90,East,91,0.0,1.0,92,0.00,,---,0.00,VWS V14.01,2013-04-09 11:10:00,
2013-04-09 07:15:00,44.5,42.3,29.90,East,91,0.0,0.0,92,0.00,,---,0.00,VWS V14.01,2013-04-09 11:15:00,
2013-04-09 07:20:00,44.1,41.9,29.90,East,91,0.0,0.0,92,0.00,,---,0.00,VWS V14.01,2013-04-09 11:20:00,
2013-04-09 07:25:00,44.0,41.8,29.90,East,91,0.0,0.0,92,0.00,,---,0.00,VWS V14.01,2013-04-09 11:25:00,
2013-04-09 07:30:00,44.3,42.4,29.90,East,91,0.0,0.0,93,0.00,,---,0.00,VWS V14.01,2013-04-09 11:30:00,
2013-04-09 07:35:00,44.5,42.3,29.91,East,91,0.0,0.0,92,0.00,,---,0.00,VWS V14.01,2013-04-09 11:35:00,
2013-04-09 07:41:00,44.7,42.5,29.91,East,91,0.0,1.0,92,0.00,,---,0.00,VWS V14.01,2013-04-09 11:41:00,
2013-04-09 07:46:00,44.9,42.4,29.91,East,87,1.0,3.0,91,0.00,,---,0.00,VWS V14.01,2013-04-09 11:46:00,
2013-04-09 07:51:00,44.9,42.4,29.90,East,88,1.0,3.0,91,0.00,,---,0.00,VWS V14.01,2013-04-09 11:51:00,
2013-04-09 07:56:00,45.0,42.5,29.90,East,87,1.0,3.0,91,0.00,,---,0.00,VWS V14.01,2013-04-09 11:56:00,
2013-04-09 08:01:00,45.1,42.6,29.90,East,86,1.0,2.0,91,0.00,,---,0.00,VWS V14.01,2013-04-09 12:01:00,
2013-04-09 08:06:00,45.3,42.8,29.89,East,85,1.0,3.0,91,0.00,,---,0.00,VWS V14.01,2013-04-09 12:06:00,
2013-04-09 08:11:00,45.5,43.0,29.89,East,85,0.0,1.0,91,0.00,,---,0.00,VWS V14.01,2013-04-09 12:11:00,
2013-04-09 08:15:00,45.8,43.3,29.89,East,85,0.0,0.0,91,0.00,,---,0.00,VWS V14.01,2013-04-09 12:15:00,
2013-04-09 08:21:00,46.1,43.3,29.90,East,100,0.0,2.0,90,0.00,,---,0.00,VWS V14.01,2013-04-09 12:21:00,
2013-04-09 08:26:00,46.3,43.5,29.90,East,94,0.0,1.0,90,0.00,,---,0.00,VWS V14.01,2013-04-09 12:26:00,
2013-04-09 08:31:00,46.5,43.4,29.90,East,96,2.0,3.0,89,0.00,,---,0.00,VWS V14.01,2013-04-09 12:31:00,
2013-04-09 08:36:00,46.7,43.6,29.90,East,83,2.0,2.0,89,0.00,,---,0.00,VWS V14.01,2013-04-09 12:36:00,
2013-04-09 08:41:00,47.0,43.9,29.90,East,83,0.0,1.0,89,0.00,,---,0.00,VWS V14.01,2013-04-09 12:41:00,
2013-04-09 08:45:00,47.5,44.1,29.90,East,82,1.0,1.0,88,0.00,,---,0.00,VWS V14.01,2013-04-09 12:45:00,
2013-04-09 08:51:00,47.9,44.2,29.90,East,82,0.0,1.0,87,0.00,,---,0.00,VWS V14.01,2013-04-09 12:51:00,
2013-04-09 08:56:00,48.1,44.4,29.90,East,82,0.0,2.0,87,0.00,,---,0.00,VWS V14.01,2013-04-09 12:56:00,
2013-04-09 09:01:00,48.3,44.6,29.90,East,84,1.0,2.0,87,0.00,,---,0.00,VWS V14.01,2013-04-09 13:01:00,
2013-04-09 09:06:00,48.7,44.7,29.89,East,84,0.0,1.0,86,0.00,,---,0.00,VWS V14.01,2013-04-09 13:06:00,
2013-04-09 09:11:00,49.1,45.1,29.89,East,84,0.0,2.0,86,0.00,,---,0.00,VWS V14.01,2013-04-09 13:11:00,
2013-04-09 09:16:00,49.6,45.3,29.89,East,86,0.0,1.0,85,0.00,,---,0.00,VWS V14.01,2013-04-09 13:16:00,
2013-04-09 09:21:00,50.0,45.4,29.89,East,83,1.0,2.0,84,0.00,,---,0.00,VWS V14.01,2013-04-09 13:21:00,
2013-04-09 09:26:00,50.6,45.6,29.89,East,90,2.0,3.0,83,0.00,,---,0.00,VWS V14.01,2013-04-09 13:26:00,
2013-04-09 09:31:00,51.2,45.9,29.89,East,83,4.0,4.0,82,0.00,,---,0.00,VWS V14.01,2013-04-09 13:31:00,
2013-04-09 09:36:00,51.6,45.6,29.87,East,89,2.0,4.0,80,0.00,,---,0.00,VWS V14.01,2013-04-09 13:36:00,
2013-04-09 09:41:00,51.9,45.9,29.87,East,91,1.0,3.0,80,0.00,,---,0.00,VWS V14.01,2013-04-09 13:41:00,
2013-04-09 09:46:00,52.3,46.0,29.87,East,82,1.0,4.0,79,0.00,,---,0.00,VWS V14.01,2013-04-09 13:46:00,
2013-04-09 09:51:00,52.5,45.8,29.87,ESE,102,0.0,3.0,78,0.00,,---,0.00,VWS V14.01,2013-04-09 13:51:00,
2013-04-09 09:56:00,52.7,46.0,29.87,East,98,2.0,4.0,78,0.00,,---,0.00,VWS V14.01,2013-04-09 13:56:00,
2013-04-09 10:01:00,52.8,46.1,29.87,East,87,0.0,3.0,78,0.00,,---,0.00,VWS V14.01,2013-04-09 14:01:00,
2013-04-09 10:06:00,53.0,46.3,29.87,East,82,1.0,3.0,78,0.00,,---,0.00,VWS V14.01,2013-04-09 14:06:00,
2013-04-09 10:11:00,53.4,46.4,29.87,East,94,0.0,3.0,77,0.00,,---,0.00,VWS V14.01,2013-04-09 14:11:00,
2013-04-09 10:16:00,53.8,46.8,29.87,East,91,1.0,2.0,77,0.00,,---,0.00,VWS V14.01,2013-04-09 14:16:00,
2013-04-09 10:21:00,54.2,46.8,29.86,East,88,0.0,2.0,76,0.00,,---,0.00,VWS V14.01,2013-04-09 14:21:00,
2013-04-09 10:26:00,54.8,47.0,29.86,East,82,0.0,3.0,75,0.00,,---,0.00,VWS V14.01,2013-04-09 14:26:00,
2013-04-09 10:31:00,55.2,47.1,29.86,ESE,103,0.0,1.0,74,0.00,,---,0.00,VWS V14.01,2013-04-09 14:31:00,
2013-04-09 10:36:00,55.2,47.1,29.87,SE,126,0.0,4.0,74,0.00,,---,0.00,VWS V14.01,2013-04-09 14:36:00,
2013-04-09 10:41:00,55.3,46.8,29.87,ESE,102,0.0,3.0,73,0.00,,---,0.00,VWS V14.01,2013-04-09 14:41:00,
2013-04-09 10:46:00,55.4,46.9,29.87,ESE,108,0.0,6.0,73,0.00,,---,0.00,VWS V14.01,2013-04-09 14:46:00,
2013-04-09 10:51:00,55.6,47.1,29.85,ENE,76,1.0,4.0,73,0.00,,---,0.00,VWS V14.01,2013-04-09 14:51:00,
2013-04-09 10:55:00,55.8,47.3,29.85,SE,127,0.0,4.0,73,0.00,,---,0.00,VWS V14.01,2013-04-09 14:55:00,
2013-04-09 11:01:00,56.1,47.6,29.85,ESE,111,0.0,6.0,73,0.00,,---,0.00,VWS V14.01,2013-04-09 15:01:00,
2013-04-09 11:05:00,56.6,47.7,29.85,ESE,107,1.0,2.0,72,0.00,,---,0.00,VWS V14.01,2013-04-09 15:05:00,
2013-04-09 11:11:00,57.5,48.6,29.85,ESE,105,2.0,4.0,72,0.00,,---,0.00,VWS V14.01,2013-04-09 15:11:00,
2013-04-09 11:16:00,58.7,48.6,29.85,East,79,1.0,4.0,69,0.00,,---,0.00,VWS V14.01,2013-04-09 15:16:00,
2013-04-09 11:21:00,58.7,48.2,29.85,ESE,108,1.0,4.0,68,0.00,,---,0.00,VWS V14.01,2013-04-09 15:21:00,
2013-04-09 11:26:00,58.4,48.3,29.85,ESE,118,3.0,3.0,69,0.00,,---,0.00,VWS V14.01,2013-04-09 15:26:00,
2013-04-09 11:31:00,58.4,48.7,29.85,East,82,0.0,3.0,70,0.00,,---,0.00,VWS V14.01,2013-04-09 15:31:00,
2013-04-09 11:36:00,58.8,49.0,29.84,ESE,120,1.0,4.0,70,0.00,,---,0.00,VWS V14.01,2013-04-09 15:36:00,
2013-04-09 11:41:00,58.9,49.2,29.84,SE,136,0.0,5.0,70,0.00,,---,0.00,VWS V14.01,2013-04-09 15:41:00,
2013-04-09 11:46:00,59.1,49.3,29.84,East,79,1.0,3.0,70,0.00,,---,0.00,VWS V14.01,2013-04-09 15:46:00,
2013-04-09 11:51:00,58.9,49.2,29.84,East,101,0.0,4.0,70,0.00,,---,0.00,VWS V14.01,2013-04-09 15:51:00,
2013-04-09 11:56:00,58.7,49.3,29.84,ESE,116,0.0,1.0,71,0.00,,---,0.00,VWS V14.01,2013-04-09 15:56:00,
2013-04-09 12:01:00,58.6,49.6,29.84,ESE,110,1.0,2.0,72,0.00,,---,0.00,VWS V14.01,2013-04-09 16:01:00,
2013-04-09 12:06:00,58.7,49.7,29.84,East,97,0.0,1.0,72,0.00,,---,0.00,VWS V14.01,2013-04-09 16:06:00,
2013-04-09 12:11:00,58.7,49.7,29.84,East,97,0.0,1.0,72,0.00,,---,0.00,VWS V14.01,2013-04-09 16:11:00,
2013-04-09 12:16:00,58.7,50.1,29.84,East,98,0.0,2.0,73,0.00,,---,0.00,VWS V14.01,2013-04-09 16:16:00,
2013-04-09 12:21:00,58.9,50.6,29.83,East,98,1.0,1.0,74,0.00,,---,0.00,VWS V14.01,2013-04-09 16:21:00,
2013-04-09 12:26:00,59.8,51.1,29.83,ESE,120,2.0,4.0,73,0.00,,---,0.00,VWS V14.01,2013-04-09 16:26:00,
2013-04-09 12:31:00,60.5,51.1,29.83,ESE,104,0.0,6.0,71,0.00,,---,0.00,VWS V14.01,2013-04-09 16:31:00,
2013-04-09 12:36:00,61.1,51.2,29.81,East,94,0.0,6.0,70,0.00,,---,0.00,VWS V14.01,2013-04-09 16:36:00,
2013-04-09 12:41:00,61.4,51.5,29.81,ESE,105,1.0,6.0,70,0.00,,---,0.00,VWS V14.01,2013-04-09 16:41:00,
2013-04-09 12:46:00,61.6,52.1,29.81,ESE,107,0.0,6.0,71,0.00,,---,0.00,VWS V14.01,2013-04-09 16:46:00,
2013-04-09 12:51:00,62.0,52.1,29.79,East,84,0.0,6.0,70,0.00,,---,0.00,VWS V14.01,2013-04-09 16:51:00,
2013-04-09 12:56:00,62.4,52.5,29.79,East,94,0.0,6.0,70,0.00,,---,0.00,VWS V14.01,2013-04-09 16:56:00,
2013-04-09 13:01:00,62.9,52.6,29.79,East,100,0.0,6.0,69,0.00,,---,0.00,VWS V14.01,2013-04-09 17:01:00,
2013-04-09 13:06:00,63.5,53.2,29.78,East,91,0.0,6.0,69,0.00,,---,0.00,VWS V14.01,2013-04-09 17:06:00,
2013-04-09 13:11:00,64.0,53.6,29.78,SE,127,2.0,6.0,69,0.00,,---,0.00,VWS V14.01,2013-04-09 17:11:00,
2013-04-09 13:16:00,64.3,54.3,29.78,ESE,104,0.0,6.0,70,0.00,,---,0.00,VWS V14.01,2013-04-09 17:16:00,
2013-04-09 13:21:00,64.9,54.1,29.78,ESE,103,0.0,6.0,68,0.00,,---,0.00,VWS V14.01,2013-04-09 17:21:00,
2013-04-09 13:26:00,65.4,55.0,29.78,ESE,113,0.0,4.0,69,0.00,,---,0.00,VWS V14.01,2013-04-09 17:26:00,
2013-04-09 13:31:00,66.3,55.4,29.78,SE,127,2.0,3.0,68,0.00,,---,0.00,VWS V14.01,2013-04-09 17:31:00,
2013-04-09 13:36:00,66.9,55.6,29.77,SE,130,0.0,2.0,67,0.00,,---,0.00,VWS V14.01,2013-04-09 17:36:00,
2013-04-09 13:41:00,67.6,56.3,29.77,ENE,61,0.0,1.0,67,0.00,,---,0.00,VWS V14.01,2013-04-09 17:41:00,
2013-04-09 13:46:00,67.8,56.0,29.77,SE,136,2.0,5.0,66,0.00,,---,0.00,VWS V14.01,2013-04-09 17:46:00,
2013-04-09 13:51:00,67.4,55.7,29.76,SE,130,1.0,2.0,66,0.00,,---,0.00,VWS V14.01,2013-04-09 17:51:00,
2013-04-09 13:56:00,67.6,56.7,29.76,SE,129,0.0,1.0,68,0.00,,---,0.00,VWS V14.01,2013-04-09 17:56:00,
2013-04-09 14:01:00,67.8,56.9,29.76,East,92,0.0,3.0,68,0.00,,---,0.00,VWS V14.01,2013-04-09 18:01:00,
2013-04-09 14:06:00,68.0,56.7,29.76,East,97,0.0,2.0,67,0.00,,---,0.00,VWS V14.01,2013-04-09 18:06:00,
2013-04-09 14:12:00,68.3,57.3,29.76,East,88,0.0,2.0,68,0.00,,---,0.00,VWS V14.01,2013-04-09 18:12:00,
2013-04-09 14:17:00,69.1,57.7,29.76,East,88,1.0,1.0,67,0.00,,---,0.00,VWS V14.01,2013-04-09 18:17:00,
2013-04-09 14:22:00,69.6,57.8,29.75,ESE,103,0.0,4.0,66,0.00,,---,0.00,VWS V14.01,2013-04-09 18:22:00,
2013-04-09 14:27:00,70.4,58.1,29.75,ESE,115,1.0,4.0,65,0.00,,---,0.00,VWS V14.01,2013-04-09 18:27:00,
2013-04-09 14:32:00,70.9,58.1,29.75,South,172,1.0,2.0,64,0.00,,---,0.00,VWS V14.01,2013-04-09 18:32:00,
2013-04-09 14:37:00,70.6,58.3,29.74,ESE,114,0.0,1.0,65,0.00,,---,0.00,VWS V14.01,2013-04-09 18:37:00,
2013-04-09 14:42:00,71.6,59.7,29.74,ESE,120,0.0,2.0,66,0.00,,---,0.00,VWS V14.01,2013-04-09 18:42:00,
2013-04-09 14:47:00,71.9,58.6,29.74,ESE,115,0.0,4.0,63,0.00,,---,0.00,VWS V14.01,2013-04-09 18:47:00,
2013-04-09 14:52:00,72.1,58.8,29.74,SE,127,0.0,2.0,63,0.00,,---,0.00,VWS V14.01,2013-04-09 18:52:00,
2013-04-09 14:57:00,72.1,59.7,29.74,South,183,0.0,2.0,65,0.00,,---,0.00,VWS V14.01,2013-04-09 18:57:00,
2013-04-09 15:02:00,71.9,59.5,29.74,South,183,0.0,2.0,65,0.00,,---,0.00,VWS V14.01,2013-04-09 19:02:00,
2013-04-09 15:07:00,71.6,59.2,29.74,South,183,0.0,0.0,65,0.00,,---,0.00,VWS V14.01,2013-04-09 19:07:00,
2013-04-09 15:12:00,71.3,59.4,29.74,South,183,0.0,1.0,66,0.00,,---,0.00,VWS V14.01,2013-04-09 19:12:00,
2013-04-09 15:17:00,71.1,59.6,29.74,South,183,0.0,2.0,67,0.00,,---,0.00,VWS V14.01,2013-04-09 19:17:00,
2013-04-09 15:22:00,70.6,59.5,29.74,South,183,0.0,1.0,68,0.00,,---,0.00,VWS V14.01,2013-04-09 19:22:00,
2013-04-09 15:27:00,70.2,60.0,29.74,South,183,0.0,1.0,70,0.00,,---,0.00,VWS V14.01,2013-04-09 19:27:00,
2013-04-09 15:32:00,69.9,59.7,29.74,South,183,0.0,0.0,70,0.00,,---,0.00,VWS V14.01,2013-04-09 19:32:00,
2013-04-09 15:37:00,69.7,59.9,29.74,South,183,0.0,0.0,71,0.00,,---,0.00,VWS V14.01,2013-04-09 19:37:00,
2013-04-09 15:42:00,69.6,59.8,29.74,South,183,0.0,0.0,71,0.00,,---,0.00,VWS V14.01,2013-04-09 19:42:00,
2013-04-09 15:48:00,69.5,60.1,29.73,South,183,0.0,0.0,72,0.00,,---,0.00,VWS V14.01,2013-04-09 19:48:00,
2013-04-09 15:53:00,69.4,60.4,29.73,South,183,0.0,0.0,73,0.00,,---,0.00,VWS V14.01,2013-04-09 19:53:00,
2013-04-09 15:58:00,69.4,60.0,29.73,South,183,0.0,0.0,72,0.00,,---,0.00,VWS V14.01,2013-04-09 19:58:00,
2013-04-09 16:03:00,69.4,60.4,29.74,South,183,0.0,0.0,73,0.00,,---,0.00,VWS V14.01,2013-04-09 20:03:00,
2013-04-09 16:08:00,69.4,60.0,29.74,South,183,0.0,0.0,72,0.00,,---,0.00,VWS V14.01,2013-04-09 20:08:00,
2013-04-09 16:13:00,69.4,60.4,29.74,South,183,0.0,0.0,73,0.00,,---,0.00,VWS V14.01,2013-04-09 20:13:00,
2013-04-09 16:18:00,69.2,60.2,29.74,South,183,0.0,0.0,73,0.00,,---,0.00,VWS V14.01,2013-04-09 20:18:00,
2013-04-09 16:23:00,68.8,60.9,29.74,South,183,0.0,0.0,76,0.00,,---,0.00,VWS V14.01,2013-04-09 20:23:00,
2013-04-09 16:28:00,69.4,60.8,29.74,SE,143,1.0,4.0,74,0.00,,---,0.00,VWS V14.01,2013-04-09 20:28:00,
2013-04-09 16:33:00,69.6,61.0,29.72,SSW,195,0.0,5.0,74,0.00,,---,0.00,VWS V14.01,2013-04-09 20:33:00,
2013-04-09 16:38:00,69.8,60.8,29.72,SSW,195,1.0,3.0,73,0.00,,---,0.00,VWS V14.01,2013-04-09 20:38:00,
2013-04-09 16:43:00,70.0,61.3,29.72,SSW,195,0.0,1.0,74,0.00,,---,0.00,VWS V14.01,2013-04-09 20:43:00,
2013-04-09 16:48:00,69.9,61.6,29.71,SSW,195,0.0,1.0,75,0.00,,---,0.00,VWS V14.01,2013-04-09 20:48:00,
2013-04-09 16:53:00,71.0,62.7,29.71,SSW,195,0.0,0.0,75,0.00,,---,0.00,VWS V14.01,2013-04-09 20:53:00,
2013-04-09 16:58:00,71.9,62.0,29.71,SSW,195,0.0,1.0,71,0.00,,---,0.00,VWS V14.01,2013-04-09 20:58:00,
2013-04-09 17:03:00,72.6,62.3,29.70,SSW,195,0.0,1.0,70,0.00,,---,0.00,VWS V14.01,2013-04-09 21:03:00,
2013-04-09 17:08:00,73.1,61.9,29.70,SSW,195,0.0,1.0,68,0.00,,---,0.00,VWS V14.01,2013-04-09 21:08:00,
2013-04-09 17:13:00,73.3,61.7,29.70,SSW,195,0.0,2.0,67,0.00,,---,0.00,VWS V14.01,2013-04-09 21:13:00,
2013-04-09 17:18:00,73.7,62.5,29.69,SSW,195,0.0,2.0,68,0.00,,---,0.00,VWS V14.01,2013-04-09 21:18:00,
2013-04-09 17:23:00,74.6,62.1,29.69,SW,224,1.0,3.0,65,0.00,,---,0.00,VWS V14.01,2013-04-09 21:23:00,
2013-04-09 17:28:00,75.1,61.7,29.69,WSW,238,2.0,5.0,63,0.00,,---,0.00,VWS V14.01,2013-04-09 21:28:00,
2013-04-09 17:33:00,75.4,61.5,29.70,South,184,1.0,3.0,62,0.00,,---,0.00,VWS V14.01,2013-04-09 21:33:00,
2013-04-09 17:38:00,75.2,61.3,29.70,WSW,242,0.0,7.0,62,0.00,,---,0.00,VWS V14.01,2013-04-09 21:38:00,
2013-04-09 17:43:00,75.5,61.6,29.70,WSW,257,4.0,4.0,62,0.00,,---,0.00,VWS V14.01,2013-04-09 21:43:00,
2013-04-09 17:48:00,75.7,61.3,29.70,SSW,195,0.0,5.0,61,0.00,,---,0.00,VWS V14.01,2013-04-09 21:48:00,
2013-04-09 17:53:00,75.4,60.6,29.70,WSW,238,1.0,3.0,60,0.00,,---,0.00,VWS V14.01,2013-04-09 21:53:00,
2013-04-09 17:58:00,74.9,60.6,29.70,SW,214,1.0,5.0,61,0.00,,---,0.00,VWS V14.01,2013-04-09 21:58:00,
2013-04-09 18:03:00,74.4,60.5,29.71,SW,229,0.0,3.0,62,0.00,,---,0.00,VWS V14.01,2013-04-09 22:03:00,
2013-04-09 18:08:00,74.1,60.3,29.71,SW,229,0.0,2.0,62,0.00,,---,0.00,VWS V14.01,2013-04-09 22:08:00,
2013-04-09 18:13:00,73.8,60.4,29.71,SW,225,2.0,5.0,63,0.00,,---,0.00,VWS V14.01,2013-04-09 22:13:00,
2013-04-09 18:18:00,73.9,60.1,29.72,WSW,245,3.0,6.0,62,0.00,,---,0.00,VWS V14.01,2013-04-09 22:18:00,
2013-04-09 18:23:00,73.9,60.1,29.72,WSW,242,1.0,7.0,62,0.00,,---,0.00,VWS V14.01,2013-04-09 22:23:00,
2013-04-09 18:28:00,73.9,59.6,29.72,SW,220,2.0,7.0,61,0.00,,---,0.00,VWS V14.01,2013-04-09 22:28:00,
2013-04-09 18:33:00,74.0,59.2,29.72,WSW,238,0.0,6.0,60,0.00,,---,0.00,VWS V14.01,2013-04-09 22:33:00,
2013-04-09 18:38:00,74.3,59.1,29.72,SE,129,1.0,10.0,59,0.00,,---,0.00,VWS V14.01,2013-04-09 22:38:00,
2013-04-09 18:43:00,74.3,58.6,29.72,SW,234,4.0,9.0,58,0.00,,---,0.00,VWS V14.01,2013-04-09 22:43:00,
2013-04-09 18:48:00,74.2,58.5,29.72,WSW,246,2.0,6.0,58,0.00,,---,0.00,VWS V14.01,2013-04-09 22:48:00,
2013-04-09 18:53:00,74.1,58.4,29.72,South,184,1.0,7.0,58,0.00,,---,0.00,VWS V14.01,2013-04-09 22:53:00,
2013-04-09 18:58:00,74.1,58.4,29.72,WSW,240,5.0,8.0,58,0.00,,---,0.00,VWS V14.01,2013-04-09 22:58:00,
2013-04-09 19:03:00,74.1,58.4,29.73,WSW,245,1.0,7.0,58,0.00,,---,0.00,VWS V14.01,2013-04-09 23:03:00,
2013-04-09 19:08:00,73.8,58.1,29.73,WSW,248,1.0,5.0,58,0.00,,---,0.00,VWS V14.01,2013-04-09 23:08:00,
2013-04-09 19:13:00,73.7,58.5,29.73,SW,226,0.0,5.0,59,0.00,,---,0.00,VWS V14.01,2013-04-09 23:13:00,
2013-04-09 19:18:00,73.6,58.4,29.73,South,178,1.0,4.0,59,0.00,,---,0.00,VWS V14.01,2013-04-09 23:18:00,
2013-04-09 19:23:00,73.4,58.7,29.73,SW,234,4.0,5.0,60,0.00,,---,0.00,VWS V14.01,2013-04-09 23:23:00,
2013-04-09 19:28:00,73.3,58.6,29.73,South,175,1.0,5.0,60,0.00,,---,0.00,VWS V14.01,2013-04-09 23:28:00,
2013-04-09 19:33:00,73.3,59.0,29.74,SW,233,3.0,5.0,61,0.00,,---,0.00,VWS V14.01,2013-04-09 23:33:00,
2013-04-09 19:38:00,73.2,59.4,29.74,SW,231,0.0,5.0,62,0.00,,---,0.00,VWS V14.01,2013-04-09 23:38:00,
2013-04-09 19:43:00,73.0,59.7,29.74,WSW,241,4.0,4.0,63,0.00,,---,0.00,VWS V14.01,2013-04-09 23:43:00,
2013-04-09 19:48:00,72.9,59.6,29.73,SW,215,3.0,6.0,63,0.00,,---,0.00,VWS V14.01,2013-04-09 23:48:00,
2013-04-09 19:53:00,72.8,59.9,29.73,SW,233,0.0,5.0,64,0.00,,---,0.00,VWS V14.01,2013-04-09 23:53:00,
2013-04-09 19:58:00,72.6,59.7,29.73,SW,228,2.0,6.0,64,0.00,,---,0.00,VWS V14.01,2013-04-09 23:58:00,
2013-04-09 20:03:00,72.5,60.1,29.73,South,188,0.0,4.0,65,0.00,,---,0.00,VWS V14.01,2013-04-10 00:03:00,
2013-04-09 20:08:00,72.3,59.9,29.73,WSW,250,0.0,4.0,65,0.00,,---,0.00,VWS V14.01,2013-04-10 00:08:00,
2013-04-09 20:13:00,71.9,59.5,29.73,West,277,2.0,3.0,65,0.00,,---,0.00,VWS V14.01,2013-04-10 00:13:00,
2013-04-09 20:18:00,70.7,58.8,29.74,West,277,0.0,2.0,66,0.00,,---,0.00,VWS V14.01,2013-04-10 00:18:00,
2013-04-09 20:23:00,69.6,58.2,29.74,WNW,300,0.0,1.0,67,0.00,,---,0.00,VWS V14.01,2013-04-10 00:23:00,
2013-04-09 20:28:00,68.4,57.8,29.74,NW,310,0.0,4.0,69,0.00,,---,0.00,VWS V14.01,2013-04-10 00:28:00,
2013-04-09 20:33:00,67.4,57.7,29.75,NW,307,4.0,4.0,71,0.00,,---,0.00,VWS V14.01,2013-04-10 00:33:00,
2013-04-09 20:38:00,65.9,56.6,29.75,NW,305,3.0,5.0,72,0.00,,---,0.00,VWS V14.01,2013-04-10 00:38:00,
2013-04-09 20:43:00,64.5,56.0,29.75,WNW,302,1.0,5.0,74,0.00,,---,0.00,VWS V14.01,2013-04-10 00:43:00,
2013-04-09 20:48:00,63.3,55.2,29.76,NW,324,0.0,3.0,75,0.00,,---,0.00,VWS V14.01,2013-04-10 00:48:00,
2013-04-09 20:53:00,62.6,55.3,29.76,NW,324,1.0,2.0,77,0.00,,---,0.00,VWS V14.01,2013-04-10 00:53:00,
2013-04-09 20:58:00,62.2,55.3,29.76,NW,324,0.0,1.0,78,0.00,,---,0.00,VWS V14.01,2013-04-10 00:58:00,
2013-04-09 21:03:00,61.9,55.0,29.77,NW,326,0.0,1.0,78,0.00,,---,0.00,VWS V14.01,2013-04-10 01:03:00,
2013-04-09 21:08:00,61.7,55.1,29.77,NW,326,0.0,1.0,79,0.00,,---,0.00,VWS V14.01,2013-04-10 01:08:00,
2013-04-09 21:13:00,61.3,54.7,29.77,NW,326,0.0,0.0,79,0.00,,---,0.00,VWS V14.01,2013-04-10 01:13:00,
2013-04-09 21:18:00,61.0,54.8,29.77,NW,326,1.0,1.0,80,0.00,,---,0.00,VWS V14.01,2013-04-10 01:18:00,
2013-04-09 21:23:00,60.8,54.9,29.77,NW,321,0.0,2.0,81,0.00,,---,0.00,VWS V14.01,2013-04-10 01:23:00,
2013-04-09 21:28:00,60.7,54.8,29.77,NW,321,0.0,0.0,81,0.00,,---,0.00,VWS V14.01,2013-04-10 01:28:00,
2013-04-09 21:33:00,60.6,54.8,29.78,NW,321,0.0,0.0,81,0.00,,---,0.00,VWS V14.01,2013-04-10 01:33:00,
2013-04-09 21:38:00,60.5,54.7,29.78,NW,321,0.0,0.0,81,0.00,,---,0.00,VWS V14.01,2013-04-10 01:38:00,
2013-04-09 21:43:00,60.4,54.9,29.78,NW,321,0.0,0.0,82,0.00,,---,0.00,VWS V14.01,2013-04-10 01:43:00,
2013-04-09 21:48:00,60.4,54.9,29.79,NW,321,0.0,0.0,82,0.00,,---,0.00,VWS V14.01,2013-04-10 01:48:00,
2013-04-09 21:53:00,60.4,54.9,29.79,NW,321,0.0,1.0,82,0.00,,---,0.00,VWS V14.01,2013-04-10 01:53:00,
2013-04-09 21:58:00,60.2,54.7,29.79,NW,321,0.0,0.0,82,0.00,,---,0.00,VWS V14.01,2013-04-10 01:58:00,
2013-04-09 22:03:00,60.2,55.0,29.79,NW,320,0.0,1.0,83,0.00,,---,0.00,VWS V14.01,2013-04-10 02:03:00,
2013-04-09 22:08:00,60.1,54.6,29.79,NW,319,1.0,1.0,82,0.00,,---,0.00,VWS V14.01,2013-04-10 02:08:00,
2013-04-09 22:13:00,59.6,54.1,29.79,NW,313,0.0,3.0,82,0.00,,---,0.00,VWS V14.01,2013-04-10 02:13:00,
2013-04-09 22:18:00,59.0,53.8,29.80,NW,309,0.0,1.0,83,0.00,,---,0.00,VWS V14.01,2013-04-10 02:18:00,
2013-04-09 22:23:00,58.6,53.8,29.80,NNW,330,0.0,2.0,84,0.00,,---,0.00,VWS V14.01,2013-04-10 02:23:00,
2013-04-09 22:28:00,58.0,53.2,29.80,NNW,327,1.0,3.0,84,0.00,,---,0.00,VWS V14.01,2013-04-10 02:28:00,
2013-04-09 22:33:00,57.6,53.1,29.80,NNW,327,0.0,0.0,85,0.00,,---,0.00,VWS V14.01,2013-04-10 02:33:00,
2013-04-09 22:38:00,57.3,52.8,29.80,NNW,327,0.0,0.0,85,0.00,,---,0.00,VWS V14.01,2013-04-10 02:38:00,
2013-04-09 22:43:00,57.2,52.7,29.80,NNW,327,0.0,0.0,85,0.00,,---,0.00,VWS V14.01,2013-04-10 02:43:00,
2013-04-09 22:48:00,57.0,52.9,29.80,NNW,327,0.0,0.0,86,0.00,,---,0.00,VWS V14.01,2013-04-10 02:48:00,
2013-04-09 22:53:00,57.0,52.9,29.80,NNW,327,0.0,0.0,86,0.00,,---,0.00,VWS V14.01,2013-04-10 02:53:00,
2013-04-09 22:58:00,57.0,52.9,29.80,NNW,327,0.0,0.0,86,0.00,,---,0.00,VWS V14.01,2013-04-10 02:58:00,
2013-04-09 23:03:00,57.0,52.9,29.80,NNW,327,0.0,0.0,86,0.00,,---,0.00,VWS V14.01,2013-04-10 03:03:00,
2013-04-09 23:08:00,56.9,53.1,29.80,NNW,327,0.0,0.0,87,0.00,,---,0.00,VWS V14.01,2013-04-10 03:08:00,
2013-04-09 23:13:00,56.7,52.9,29.80,NNW,327,0.0,0.0,87,0.00,,---,0.00,VWS V14.01,2013-04-10 03:13:00,
2013-04-09 23:18:00,56.6,52.8,29.80,NNW,327,0.0,0.0,87,0.00,,---,0.00,VWS V14.01,2013-04-10 03:18:00,
2013-04-09 23:23:00,56.8,53.0,29.80,NNW,327,0.0,0.0,87,0.00,,---,0.00,VWS V14.01,2013-04-10 03:23:00,
2013-04-09 23:28:00,56.8,53.0,29.80,NNW,327,0.0,0.0,87,0.00,,---,0.00,VWS V14.01,2013-04-10 03:28:00,
2013-04-09 23:33:00,56.7,52.9,29.80,NNW,327,0.0,0.0,87,0.00,,---,0.00,VWS V14.01,2013-04-10 03:33:00,
2013-04-09 23:38:00,56.6,52.5,29.80,NNW,327,0.0,0.0,86,0.00,,---,0.00,VWS V14.01,2013-04-10 03:38:00,
2013-04-09 23:43:00,56.2,52.1,29.80,NNW,327,0.0,0.0,86,0.00,,---,0.00,VWS V14.01,2013-04-10 03:43:00,
2013-04-09 23:48:00,55.8,51.7,29.80,NNW,332,0.0,1.0,86,0.00,,---,0.00,VWS V14.01,2013-04-10 03:48:00,
2013-04-09 23:53:00,55.5,51.4,29.80,NNW,332,0.0,0.0,86,0.00,,---,0.00,VWS V14.01,2013-04-10 03:53:00,
2013-04-09 23:58:00,55.1,51.0,29.80,NNW,332,0.0,0.0,86,0.00,,---,0.00,VWS V14.01,2013-04-10 03:58:00,